Погода в Яме-Тесове

Россия / Санкт-Петербург и Ленинградская область     58°53′33″N   30°34′44″E
темп.,
°C
ветер,
м/с
пор.,
м/с
влажн.,
%
обл.,
%
осадки,
мм/ч
давл.,
гПа
погр.,
м
27 января, ср
ср2700:000в4109789 0.2 998674
03:000в389794 0.6 997519
06:00−1вюв289297 0.2 997378
09:00−3всв239889 0.2 996121
12:00−2св129481 0.0 997159
15:00−1з118983 0.1 999325
18:00−1зюз1291100 0.0 1000267
21:00−2юз1390100 0.1 1002262
28 января, чт
чт2800:00−2ююз1290100 0.1 1003207
03:00−2юз1189100 0.1 1004116
06:00−3ю129081 0.0 100432
09:00−2юв118689 0.0 100555
12:00−2вюв238489 0.0 1005230
15:00−1вюв128592 0.0 1004297
18:00−3всв249799 0.1 1003126
21:00−3в2497100 0.2 1002197
29 января, пт
пт2900:00−2вюв2697100 0.4 1001273
03:00−3в2597100 0.7 999262
06:00−3всв3696100 0.6 996280
09:00−3св2596100 1.3 994300
12:00−3св2594100 0.3 993306
15:00−1всв2396100 0.8 991163
18:00−1юв2598100 0.9 990224
21:00−3ююв1297100 1.0 98947
30 января, сб
сб3000:00−3ю1296100 0.0 98827
03:00−5ю129799 0.0 98721
06:00−6ю129843 0.0 98621
09:00−6ю129769 0.1 98643
12:00−4ю1393100 0.1 986244
15:00−3ю2493100 0.7 986359
18:00−4ю2696100 0.3 986302
21:00−5ююв2597100 0.6 987196
31 января, вс
вс3100:00−5ююв2696100 0.2 987315
03:00−4юв379698 0.6 987393
06:00−5ююв389597 0.3 987413
09:00−5ююв379498 0.6 987411
12:00−4юв3692100 0.3 988492
15:00−4юв3592100 0.6 988462
18:00−4ю2496100 0.8 989240
21:00−6юз239698 1.1 990108